Location: Ahausen
(50.4985°N, 8.2722°E)
Time: 07:14:24
(UTC+00:00)

ATLAS 2AS CENTAUR R/B - Pass Details

Date: 18 September 2020
Orbit: 939 x 1273 km, 63.7° (Epoch: 19 October)

Event Time Altitude Azimuth Distance (km) Brightness Sun altitude
Exits shadow 22:59:05 17° 269° (W) 2,756 4.8 -37.9°
Maximum altitude 23:04:54 43° 333° (NNW) 1,704 3.9 -38.0°
Drops below altitude 10° 23:12:12 10° 44° (NE) 3,172 5.6 -38.1°
Sets 23:15:06 0° 51° (NE) 4,097 6.2 -38.1°
